Tracking 19245 objects as of 17-Aug-2018
HD Live streaming from Space Station
objects crossing your sky now

NOAA 16 DEB

Track NOAA 16 DEB now!
10-day predictions


NORAD ID: 41056
Int'l Code: 2000-055P
Perigee: 858.6 km
Apogee: 881.6 km
Inclination: 98.8 °
Period: 102.2 minutes
Semi major axis: 7241 km
RCS: Unknown
Launch date: September 21, 2000
Source: United States (US)
Launch site: AIR FORCE WESTERN TEST RANGE (AFWTR)

Note: This is SATELLITE DEBRIS
aabbcc
Your satellite tracking list
Your tracking list is empty




NASA's NSSDC Master Catalog

Two Line Element Set (TLE):
1 41056U 00055P   18228.89089877 +.00000229 +00000-0 +15715-3 0  9998
2 41056 098.8107 293.6235 0015870 330.1375 029.8888 14.08945523140160
Source of the keplerian elements: AFSPC